Location: Muenchen
(48.1800°N, 11.5800°E)
Time: 08:08:16
(UTC+01:00)

ISS - All Passes

Search period start: 22 December 2014 00:00
Search period end: 01 January 2015 00:00
Orbit: 404 x 414 km, 51.6° (Epoch: 22 December)

Date Brightness Start Highest point End Pass type
(mag) Time Alt. Az. Time Alt. Az. Time Alt. Az.
22 Dec - 13:37:58 10° SW 13:41:03 38° SSE 13:44:09 10° ENE daylight
22 Dec - 15:14:18 10° W 15:17:34 58° NNW 15:20:50 10° ENE daylight
22 Dec - 16:51:17 10° WNW 16:54:28 45° N 16:57:39 10° E visible
22 Dec - 18:27:56 10° WNW 18:31:14 79° SSW 18:34:30 10° ESE visible
22 Dec - 20:05:17 10° W 20:07:22 16° SW 20:09:27 10° S visible
23 Dec - 12:47:39 10° SSW 12:50:22 24° SE 12:53:06 10° E daylight
23 Dec - 14:23:23 10° WSW 14:26:42 77° NNW 14:30:00 10° ENE daylight
23 Dec - 16:00:21 10° WNW 16:03:32 43° N 16:06:42 10° ENE daylight
23 Dec - 17:37:05 10° WNW 17:40:23 74° NNE 17:43:40 10° ESE visible
23 Dec - 19:13:58 10° W 19:16:44 25° SW 19:19:30 10° SSE visible
24 Dec - 11:57:44 10° S 11:59:43 15° SE 12:01:41 10° E daylight
24 Dec - 13:32:32 10° WSW 13:35:50 74° SSE 13:39:08 10° ENE daylight
24 Dec - 15:09:22 10° W 15:12:34 45° N 15:15:46 10° ENE daylight
24 Dec - 16:46:12 10° WNW 16:49:28 56° NNE 16:52:43 10° E daylight
24 Dec - 18:22:53 10° WNW 18:26:00 40° SSW 18:29:05 10° SE visible
25 Dec - 12:41:47 10° SW 12:44:59 48° SSE 12:48:11 10° ENE daylight
25 Dec - 14:18:19 10° W 14:21:34 52° NNW 14:24:49 10° ENE daylight
25 Dec - 15:55:16 10° WNW 15:58:29 47° N 16:01:41 10° E daylight
25 Dec - 17:31:53 10° WNW 17:35:09 64° SSW 17:38:24 10° SE visible
25 Dec - 19:09:47 10° WSW 19:11:11 12° SW 19:12:35 10° SSW visible
26 Dec - 11:51:11 10° SSW 11:54:08 30° SE 11:57:05 10° E daylight
26 Dec - 13:27:16 10° W 13:30:33 66° NNW 13:33:51 10° ENE daylight
26 Dec - 15:04:14 10° WNW 15:07:26 43° N 15:10:36 10° ENE daylight
26 Dec - 16:40:55 10° WNW 16:44:14 87° NNE 16:47:31 10° ESE daylight
26 Dec - 18:17:59 10° W 18:20:28 20° SW 18:22:56 10° S visible
27 Dec - 11:00:53 10° S 11:03:19 19° SE 11:05:45 10° E daylight
27 Dec - 12:36:14 10° WSW 12:39:33 90° SSE 12:42:52 10° ENE daylight
27 Dec - 14:13:08 10° WNW 14:16:20 44° N 14:19:31 10° ENE daylight
27 Dec - 15:49:55 10° WNW 15:53:12 64° NNE 15:56:28 10° E daylight
27 Dec - 17:26:39 10° W 17:29:38 32° SW 17:32:35 10° SSE visible
28 Dec - 10:11:17 10° SSE 10:12:32 12° SE 10:13:47 10° ESE daylight
28 Dec - 11:45:16 10° SW 11:48:32 60° SSE 11:51:48 10° ENE daylight
28 Dec - 13:21:58 10° W 13:25:12 48° N 13:28:25 10° ENE daylight
28 Dec - 14:58:51 10° WNW 15:02:06 51° N 15:05:19 10° E daylight
28 Dec - 16:35:29 10° WNW 16:38:42 50° SSW 16:41:53 10° SE daylight
29 Dec - 10:54:27 10° SW 10:57:33 38° SSE 11:00:39 10° ENE daylight
29 Dec - 12:30:46 10° W 12:34:03 58° NNW 12:37:19 10° ENE daylight
29 Dec - 14:07:44 10° WNW 14:10:56 45° N 14:14:07 10° E daylight
29 Dec - 15:44:22 10° WNW 15:47:40 78° SSW 15:50:57 10° ESE daylight
29 Dec - 17:21:43 10° W 17:23:47 16° SW 17:25:51 10° S visible
30 Dec - 10:03:50 10° SSW 10:06:34 24° SE 10:09:19 10° E daylight
30 Dec - 11:39:34 10° WSW 11:42:53 77° NNW 11:46:12 10° ENE daylight
30 Dec - 13:16:31 10° WNW 13:19:43 43° N 13:22:53 10° ENE daylight
30 Dec - 14:53:14 10° WNW 14:56:32 74° NNE 14:59:50 10° ESE daylight
30 Dec - 16:30:06 10° W 16:32:52 25° SW 16:35:38 10° SSE daylight
31 Dec - 09:13:39 10° S 09:15:38 15° SE 09:17:37 10° E daylight
31 Dec - 10:48:26 10° WSW 10:51:44 75° SSE 10:55:02 10° ENE daylight
31 Dec - 12:25:14 10° W 12:28:27 45° N 12:31:39 10° ENE daylight
31 Dec - 14:02:04 10° WNW 14:05:20 56° NNE 14:08:35 10° E daylight
31 Dec - 15:38:43 10° WNW 15:41:51 40° SSW 15:44:56 10° SE daylight
